Location: Azul
(36.7830°S, 59.8500°W)
Time: 12:33:03
(UTC-03:00)

ISS - Pass Details

Date: 21 February 2018
Orbit: 403 x 406 km, 51.6° (Epoch: 26 February)

Event Time Altitude Azimuth Distance (km) Brightness Sun altitude
Rises 21:15:48 0° 296° (WNW) 2,331 0.6 -17.2°
Reaches altitude 10° 21:17:57 10° 288° (WNW) 1,477 -0.4 -17.6°
Maximum altitude 21:21:06 40° 216° (SW) 623 -2.4 -18.1°
Drops below altitude 10° 21:24:17 10° 144° (SE) 1,494 -1.0 -18.7°
Enters shadow 21:24:25 - 143° (SE) 1,545 -1.0 -18.7°
